Terminal Aerodrome Forecast
Issued by NWS

Home | Current Version | Previous Version | Text Only | Print | Product List | Glossary On
Versions: 1 2 3 4 5 6 7 8 9 10 11 12 13 14 15 16 17 18 19 20 21 22 23 24 25 26 27 28
000
FTUS41 KOKX 011727
TAFSWF
TAF
KSWF 011727Z 0118/0224 26013G20KT P6SM FEW020 BKN035
     FM012300 27009KT P6SM BKN040
     FM020100 28005KT P6SM BKN050
     FM020500 VRB03KT P6SM SCT050 BKN250
     FM021600 28006KT P6SM SCT050 BKN250
      AMD NOT SKED=

USA.gov is the U.S. government's official web portal to all federal, state and local government web resources and services.